Regional Weather Roundup
Issued by NWS

Home | Current Version | Previous Version | Graphics & Text | Print | Product List | Glossary On
Versions: 1 2 3 4 5 6 7 8 9 10 11 12 13 14 15 16 17 18 19 20 21 22 23 24 25 26 27 28 29 30 31 32 33 34 35 36 37 38 39 40 41 42 43 44 45 46 47 48 49 50
000
ASUS43 KLOT 041600
RWRIL

ILLINOIS REGIONAL WEATHER ROUNDUP
NATIONAL WEATHER SERVICE CHICAGO/ROMEOVILLE IL
1100 AM CDT TUE AUG 04 2015

NOTE: "FAIR" INDICATES FEW OR NO CLOUDS BELOW 12,000 FEET WITH NO
SIGNIFICANT WEATHER AND/OR OBSTRUCTIONS TO VISIBILITY.

* THESE STATIONS ARE NOT UNDER NWS QUALITY CONTROL. THEY ALSO MAY NOT
  REPORT WEATHER SUCH AS PRECIPITATION OR FOG.

ILZ001-002-007-009-015-016-024-041700-
NORTHWEST ILLINOIS

CITY           SKY/WX    TMP DP  RH WIND       PRES   REMARKS
MOLINE         PTSUNNY   79  60  52 NW8       30.00F HX  80
STERLING*      MOSUNNY   77  57  50 NW8       29.98S
$$

ILZ003-004-008-010-011-017-018-041700-
NORTH CENTRAL ILLINOIS

CITY           SKY/WX    TMP DP  RH WIND       PRES   REMARKS
ROCKFORD       PTSUNNY   78  55  44 W8        30.01R
$$

ILZ005-006-012>014-019>023-041700-
NORTHEAST ILLINOIS

CITY           SKY/WX    TMP DP  RH WIND       PRES   REMARKS
CHICAGO-OHARE  PTSUNNY   78  50  37 W15G21    29.97S
CHICAGO-MIDWAY PTSUNNY   80  51  36 NW8       29.97F HX  80
AURORA         SUNNY     78  57  48 NW12      29.99F
WAUKEGAN       SUNNY     76  54  46 VRB7      29.97R
DUPAGE AIRPORT SUNNY     77  54  44 W8        29.98F
WHEELING       MOSUNNY   79  49  34 W9G18     29.98S
NORTHERLY ISL    N/A     78  49  35 W3          N/A
$$

LMZ740>746-041700-
SOUTHERN LAKE MICHIGAN

STATION/POSITION SKY/WX   TEMP    WIND        PRES    VSBY  WAVE
                          AIR SEA DIR/SP/G                  HT/PER
                          (F)     (DEG/KT/KT) (MB)    (MI)  (FT/S)
HARRISON CRIB              74     240/  9/ 13   N/A
BURNHAM HARBOR             77     260/  6/  9   N/A
CALUMET HARBOR             77     250/  4/  7   N/A
BURNS HARBOR               72     300/  5/  6 1015.9R
MICHIGAN CITY              70     230/  7/  8   N/A
MICHIGAN CITY 6N           71 74  270/  6/  8   N/A           1/ 3
ST. JOSEPH                 71 73  280/  6/  6   N/A           1/ 3
$$

ILZ025>027-034>036-040-047-049-050-058-095>099-041700-
WEST-CENTRAL ILLINOIS

CITY           SKY/WX    TMP DP  RH WIND       PRES   REMARKS
QUINCY         CLOUDY    76  61  59 SE6       30.02S
MACOMB*        CLOUDY    74  61  64 CALM      30.04S
$$

ILZ028>032-037-038-041>044-048-051>054-059>061-041700-
CENTRAL ILLINOIS

CITY           SKY/WX    TMP DP  RH WIND       PRES   REMARKS
DECATUR        CLOUDY    78  58  49 SE3       30.02S
PEORIA         PTSUNNY   81  57  43 W3        30.01S HX  81
SPRINGFIELD    CLOUDY    79  60  52 SE3       30.02R HX  80
TAYLORVILLE    NOT AVBL
$$

ILZ033-039-045-046-055>057-062-063-041700-
EAST-CENTRAL ILLINOIS

CITY           SKY/WX    TMP DP  RH WIND       PRES   REMARKS
CHAMPAIGN      MOSUNNY   78  62  57 SW5       30.03R HX  80
MATTOON        PTSUNNY   78  55  44 SW3       30.01S
$$

ILZ079-100>102-041700-
SOUTHWEST ILLINOIS

CITY           SKY/WX    TMP DP  RH WIND       PRES   REMARKS
ALTON          PTSUNNY   81  68  65 VRB6      30.00S HX  83
BELLEVILLE     MOSUNNY   83  72  70 VRB6      29.98F HX  88
CAHOKIA*       MOSUNNY   86  67  52 E5        29.98F HX  89
$$

ILZ064>066-069>071-074>076-080>082-084>086-088>090-092>094-041700-
SOUTH-CENTRAL ILLINOIS

CITY           SKY/WX    TMP DP  RH WIND       PRES   REMARKS
CARBONDALE     MOSUNNY   85  73  67 VRB3      29.99R HX  91
MARION         MOSUNNY   86  75  70 W5        30.00R HX  95
MT. VERNON     PTSUNNY   81  66  61 NE3       30.02R HX  83
SALEM*         PTSUNNY   80  66  62 SE3       30.01S HX  82
$$

ILZ067-068-072-073-078-083-087-091-041700-
SOUTHEAST ILLINOIS

CITY           SKY/WX    TMP DP  RH WIND       PRES   REMARKS
LAWRENCEVILLE  CLOUDY    79  64  60 SE3       30.01S HX  81
FLORA*         CLOUDY    79  65  63 CALM      30.01S HX  81
HARRISBURG*    SUNNY     84  73  67 CALM      30.00F HX  90
ROBINSON*      CLOUDY    76  62  62 CALM      30.02S
CARMI*         PTSUNNY   82  67  59 CALM      29.99F HX  84
$$

ABBREVIATIONS USED IN REMARKS
   TC - TEMPERATURE IN CELSIUS
  WCI - WIND CHILL INDEX
   HX - HEAT INDEX
  VSB - VISIBILITY
$$




USA.gov is the U.S. government's official web portal to all federal, state and local government web resources and services.